sat.trackr.live / text

‹ back to catalog

STARLINK-36051

NORAD 66793 · 2025-278C

PAYLOAD ACTIVE UNKNOWN

§ Identity

Operator
Country
US
Launch date
2025-12-01
Launch site
AFETR
Launch vehicle
Mass (kg)
RCS (m²)

Purposes: comms

External: N2YO · Heavens-Above · Gunter

§ Orbital elements

Epoch: 2026-09-20T06:04:50.234880Z

Period
94.27 min
Inclination
43.0036°
Eccentricity
0.0002387
Mean motion
15.27589360 rev/d
Perigee alt
481.4 km
Apogee alt
484.7 km
Semi-major
6,861.2 km
B*
3.8868e-4
RAAN
95.7002°
Arg perigee
263.5441°
Mean anomaly
96.5139°
Rev number
4,496

§ Raw data

STARLINK-360511 66793U 25278C   26263.25335920  .00010452  00000+0  38868-3 0  99902 66793  43.0036  95.7002 0002387 263.5441  96.5139 15.27589360 44969

JSON: /api/v1/satellites/66793 · /tle

For live sub-satellite position, see the globe view (requires WebGL).

§ Visibility from observer

Set your observer location to see the next 7 days of passes ≥ 10°. The values pass through the URL so the page stays shareable.

No JS? Fill the form by hand. The geolocation button needs JavaScript.